Change the Weather History Date:

Monday, October 15, 2012

  Actual Average Record
Temperature  
Mean Temperature 66 °F -  
Max Temperature 74 °F 73 °F 86 °F (1985)
Min Temperature 58 °F 48 °F 33 °F (1979)
Growing Degree Days 16 (Base 50)    
Moisture  
Dew Point 60 °F    
Average Humidity 85    
Maximum Humidity 100    
Minimum Humidity 64    
Precipitation  
Precipitation 0.38 in - - ()
Sea Level Pressure  
Sea Level Pressure 29.75 in    
Wind  
Wind Speed 12 mph (SW)    
Max Wind Speed 22 mph    
Max Gust Speed 28 mph    
Visibility 9 miles    
Events Rain    
Averages and records for this station are not official NWS values.
T = Trace of Precipitation, MM = Missing Value Source: NWS Daily Summary

Daily Weather History Graph

Daily Weather History Graph

Search for Another Location

Airport or City:

Trip Planner

Search our weather history database for the weather conditions in past years. The results will help you decide how hot, cold, wet, or windy it might be!

Date:

Astronomy

Oct. 15, 2012 Rise Set
Actual Time 7:11 AM EDT 6:22 PM EDT
Civil Twilight 6:44 AM EDT 6:49 PM EDT
Nautical Twilight 6:13 AM EDT 7:20 PM EDT
Astronomical Twilight 5:42 AM EDT 7:51 PM EDT
Moon 7:19 AM EDT (10/15) 6:21 PM EDT (10/15)
Length of Visible Light 12h 04m
Length of Day
11h 10m
New Moon, 0% of the Moon is Illuminated
Oct 15
New Moon
Oct 21
First Quarter
Oct 29
Full
Nov 6
Last Quarter
Nov 13
New

Hourly Weather History & Observations

Time (EDT) Temp. Dew Point Humidity Pressure Visibility Wind Dir Wind Speed Gust Speed Precip Events Conditions
12:55 AM 62.6 °F 57.9 °F 85% 29.95 in 10.0 mi SSE 12.7 mph - N/A   Partly Cloudy
1:55 AM 64.4 °F 57.9 °F 79% 29.93 in 10.0 mi South 12.7 mph - N/A   Overcast
2:55 AM 65.1 °F 58.6 °F 79% 29.90 in 10.0 mi South 15.0 mph - N/A   Overcast
3:55 AM 64.8 °F 58.6 °F 81% 29.86 in 10.0 mi South 12.7 mph - N/A   Clear
4:55 AM 66.7 °F 59.4 °F 77% 29.84 in 10.0 mi South 16.1 mph - N/A   Clear
5:55 AM 67.5 °F 58.6 °F 73% 29.83 in 10.0 mi South 18.4 mph - N/A   Clear
6:55 AM 67.3 °F 58.5 °F 73% 29.82 in 10.0 mi South 17.3 mph - N/A   Clear
7:55 AM 66.9 °F 58.5 °F 74% 29.82 in 10.0 mi South 13.8 mph - N/A   Partly Cloudy
8:55 AM 68.0 °F 57.6 °F 69% 29.81 in 10.0 mi South 17.3 mph 27.6 mph N/A   Scattered Clouds
9:55 AM 69.8 °F 57.6 °F 65% 29.81 in 10.0 mi SSW 18.4 mph 24.2 mph N/A   Clear
10:55 AM 72.1 °F 59.4 °F 64% 29.79 in 10.0 mi South 17.3 mph 23.0 mph N/A   Scattered Clouds
11:55 AM 73.2 °F 61.0 °F 65% 29.77 in 10.0 mi SSW 18.4 mph 25.3 mph N/A   Mostly Cloudy
12:55 PM 71.6 °F 61.0 °F 69% 29.75 in 10.0 mi SSW 15.0 mph - N/A   Overcast
1:01 PM 71.6 °F 60.8 °F 69% 29.75 in 10.0 mi SSW 15.0 mph - N/A   Overcast
1:26 PM 73.4 °F 60.8 °F 65% 29.73 in 10.0 mi SSW 20.7 mph - N/A   Mostly Cloudy
1:55 PM 72.9 °F 60.6 °F 65% 29.71 in 10.0 mi SSW 19.6 mph 27.6 mph N/A   Scattered Clouds
2:42 PM 71.6 °F 60.8 °F 69% 29.72 in 10.0 mi SW 18.4 mph 24.2 mph N/A Rain Light Rain
2:55 PM 69.3 °F 61.7 °F 77% 29.72 in 10.0 mi SSW 21.9 mph 27.6 mph 0.00 in Rain Light Rain
3:55 PM 66.4 °F 62.4 °F 87% 29.69 in 10.0 mi South 13.8 mph - 0.01 in Rain Light Rain
4:06 PM 66.2 °F 62.6 °F 88% 29.70 in 10.0 mi SSW 11.5 mph - N/A   Mostly Cloudy
4:21 PM 66.2 °F 62.6 °F 88% 29.67 in 10.0 mi Variable 6.9 mph - N/A Rain Light Rain
4:38 PM 66.2 °F 62.6 °F 88% 29.69 in 10.0 mi SSW 8.1 mph - N/A   Scattered Clouds
4:55 PM 66.4 °F 63.1 °F 89% 29.69 in 10.0 mi South 6.9 mph - 0.00 in   Scattered Clouds
5:40 PM 66.2 °F 62.6 °F 88% 29.70 in 10.0 mi South 11.5 mph - N/A Rain Light Rain
5:55 PM 65.3 °F 62.4 °F 90% 29.69 in 10.0 mi South 9.2 mph - 0.02 in Rain Light Rain
6:05 PM 64.4 °F 62.6 °F 94% 29.69 in 10.0 mi South 6.9 mph - N/A   Scattered Clouds
6:19 PM 64.4 °F 62.6 °F 94% 29.68 in 10.0 mi SSW 5.8 mph - N/A   Light Drizzle
6:34 PM 64.4 °F 60.8 °F 88% 29.68 in 10.0 mi SW 3.5 mph - N/A   Mostly Cloudy
6:55 PM 63.9 °F 61.5 °F 92% 29.68 in 10.0 mi SW 4.6 mph - 0.00 in   Mostly Cloudy
7:55 PM 63.3 °F 61.9 °F 95% 29.70 in 10.0 mi SW 5.8 mph - N/A   Overcast
8:02 PM 62.6 °F 62.6 °F 100% 29.70 in 10.0 mi SW 4.6 mph - N/A Rain Light Rain
8:21 PM 62.6 °F 62.6 °F 100% 29.71 in 8.0 mi West 11.5 mph - N/A Rain Light Rain
8:49 PM 60.8 °F 57.2 °F 88% 29.71 in 7.0 mi SW 4.6 mph - N/A Rain Light Rain
8:55 PM 60.3 °F 57.6 °F 91% 29.70 in 10.0 mi West 3.5 mph - 0.21 in Rain Light Rain
9:36 PM 60.8 °F 57.2 °F 88% 29.74 in 8.0 mi West 4.6 mph - N/A Rain Light Rain
9:42 PM 59.0 °F 57.2 °F 94% 29.74 in 3.0 mi WNW 5.8 mph - N/A Rain Light Rain
9:43 PM 59.0 °F 57.2 °F 94% 29.74 in 2.5 mi West 4.6 mph - N/A Rain Rain
9:46 PM 59.0 °F 57.2 °F 94% 29.74 in 2.5 mi West 3.5 mph - N/A Rain Rain
9:49 PM 59.0 °F 57.2 °F 94% 29.74 in 3.0 mi Calm Calm - N/A Rain Rain
9:51 PM 59.0 °F 57.2 °F 94% 29.74 in 4.0 mi NW 3.5 mph - N/A Rain Rain
9:55 PM 59.5 °F 57.7 °F 94% 29.74 in 5.0 mi NW 4.6 mph - 0.08 in Rain Rain
9:59 PM 59.0 °F 57.2 °F 94% 29.74 in 7.0 mi NW 4.6 mph - N/A Rain Light Rain
10:24 PM 59.0 °F 57.2 °F 94% 29.74 in 6.0 mi WSW 4.6 mph - N/A Rain Light Rain
10:38 PM 59.0 °F 57.2 °F 94% 29.72 in 9.0 mi Calm Calm - N/A Rain Light Rain
10:53 PM 59.0 °F 57.2 °F 94% 29.72 in 10.0 mi West 4.6 mph - N/A   Overcast
10:55 PM 58.8 °F 58.1 °F 97% 29.72 in 10.0 mi West 3.5 mph - 0.06 in   Overcast
11:52 PM 59.0 °F 57.2 °F 94% 29.73 in 10.0 mi WNW 6.9 mph - N/A Rain Light Rain
11:55 PM 58.8 °F 57.7 °F 96% 29.73 in 10.0 mi WNW 6.9 mph - 0.00 in Rain Light Rain